Waarnemingen

Advertentie
Mijn weer
Woensdrecht, Nederland (6340): temperatuur & dauwpunt: 12.12.2017 12:00:00 - 18.12.2017 12:00:00 (CET)Woensdrecht, Nederland (6340): temperatuur 5cm: 12.12.2017 12:00:00 - 18.12.2017 12:00:00 (CET)Woensdrecht, Nederland (6340): windsnelheid & windstoten: 12.12.2017 12:00:00 - 18.12.2017 12:00:00 (CET)Woensdrecht, Nederland (6340): windrichting: 12.12.2017 12:00:00 - 18.12.2017 12:00:00 (CET)Woensdrecht, Nederland (6340): luchtdruk: 12.12.2017 12:00:00 - 18.12.2017 12:00:00 (CET)Woensdrecht, Nederland (6340): zicht: 12.12.2017 12:00:00 - 18.12.2017 12:00:00 (CET)Woensdrecht, Nederland (6340): neerslag: 12.12.2017 12:00:00 - 18.12.2017 12:00:00 (CET)
Datum & Tijd tt [°C] td [°C] tt 5cm [°C] ff [km/u] ff [kn] fx [km/u] fx [kn] dd ppp [hPa] vv [km] rr [mm]
18.12.2017 12:00:00 - - - - - - - - - - -
18.12.2017 11:00:00 7,7 5,0 7,7 13 7 29 16 N 1024,5 10 0,0
18.12.2017 10:00:00 7,2 4,8 6,7 15 8 29 16 N 1023,3 10 0,0
18.12.2017 09:00:00 6,8 4,8 6,3 13 7 32 18 N 1022,3 10 0,0
18.12.2017 08:00:00 6,7 5,1 6,2 13 7 25 14 NNW 1021,0 10 0,0
18.12.2017 07:00:00 5,9 4,7 5,5 15 8 32 18 NNW 1020,1 10 0,1
18.12.2017 06:00:00 6,1 4,6 5,3 15 8 32 18 NW 1019,2 9 0,0
18.12.2017 05:00:00 6,6 5,1 6,1 15 8 29 16 NW 1018,4 9 0,0
18.12.2017 04:00:00 6,9 6,0 6,5 18 10 32 18 NW 1017,6 9 0,3
18.12.2017 03:00:00 7,4 6,8 7,1 18 10 32 18 NW 1017,0 10 0,1
18.12.2017 02:00:00 5,6 5,6 5,4 15 8 25 14 WZW 1016,5 6 0,7
18.12.2017 01:00:00 4,5 4,4 4,3 15 8 36 19 ZW 1016,6 2,7 0,3
18.12.2017 00:00:00 4,2 3,8 4,0 18 10 40 21 ZZW 1017,4 5 1,1
17.12.2017 23:00:00 3,8 3,4 3,7 21 11 43 23 ZZW 1018,0 4,2 1,6
17.12.2017 22:00:00 3,4 2,9 3,3 18 10 43 23 Z 1019,3 3,5 0,2
17.12.2017 21:00:00 3,5 2,3 3,3 18 10 32 18 Z 1020,5 10 0,1
17.12.2017 20:00:00 3,5 2,0 3,3 15 8 32 18 Z 1021,5 10 0,2
17.12.2017 19:00:00 4,0 1,2 3,7 16 9 - - ZZW 1022,6 10 0,0
17.12.2017 18:00:00 3,8 1,5 3,5 15 8 29 16 ZW 1023,0 10 0,0
17.12.2017 17:00:00 4,1 2,6 3,7 11 6 22 12 ZW 1023,2 10 0,0
17.12.2017 16:00:00 4,6 3,4 4,3 13 7 22 12 ZW 1024,0 10 0,0
17.12.2017 15:00:00 5,1 4,0 4,9 15 8 25 14 WZW 1023,9 10 0,0
17.12.2017 14:00:00 5,5 4,1 5,2 11 6 22 12 WZW 1023,8 10 0,0
17.12.2017 13:00:00 5,8 4,2 5,3 8 4 18 10 WZW 1023,8 10 0,0
17.12.2017 12:00:00 4,9 3,8 5,1 15 8 18 10 WZW 1024,1 10 0,0
17.12.2017 11:00:00 3,6 2,9 3,2 5 3 11 6 ZW 1024,1 10 0,0
17.12.2017 10:00:00 1,1 1,1 -0,3 5 3 14 8 WZW 1023,7 10 0,0
17.12.2017 09:00:00 0,0 0,0 -2,0 9 5 11 6 WZW 1023,1 10 0,0
17.12.2017 08:00:00 0,5 0,3 -1,2 8 4 11 6 WZW 1022,7 10 0,0
17.12.2017 07:00:00 -0,2 -0,4 -1,5 5 3 14 8 WZW 1022,1 10 0,0
17.12.2017 06:00:00 1,4 1,4 0,2 4 2 11 6 - 1021,5 10 0,2
17.12.2017 05:00:00 0,3 0,1 -0,8 5 3 11 6 WZW 1021,2 10 0,0
17.12.2017 04:00:00 2,1 1,9 1,1 9 5 18 10 WZW 1020,5 10 0,0
17.12.2017 03:00:00 2,0 1,6 0,8 11 6 14 8 ZW 1020,4 10 0,0
17.12.2017 02:00:00 1,7 1,4 1,0 13 7 18 10 WZW 1019,8 10 0,0
17.12.2017 01:00:00 1,7 1,5 0,9 13 7 25 14 WZW 1019,7 10 0,1
17.12.2017 00:00:00 1,9 1,3 1,1 9 5 18 10 W 1019,5 10 0,1
16.12.2017 23:00:00 1,2 0,1 0,2 9 5 22 12 WZW 1018,8 10 0,0
16.12.2017 22:00:00 2,5 0,9 1,0 9 5 22 12 W 1018,4 10 0,0
16.12.2017 21:00:00 3,5 2,3 2,9 5 3 25 14 WNW 1018,1 10 0,0
16.12.2017 20:00:00 3,8 1,7 3,1 8 4 29 16 WNW 1017,6 10 0,0
16.12.2017 19:00:00 2,6 1,8 1,9 11 6 22 12 WZW 1016,9 10 0,0
16.12.2017 18:00:00 3,6 1,9 3,0 16 9 29 16 WNW 1016,3 10 0,0
16.12.2017 17:00:00 3,8 2,2 3,0 15 8 22 12 W 1015,9 10 0,0
16.12.2017 16:00:00 4,1 2,0 3,3 11 6 22 12 W 1015,1 10 0,2
16.12.2017 15:00:00 4,0 2,6 3,9 11 6 32 18 NNW 1014,6 10 0,3
16.12.2017 14:00:00 5,2 3,5 4,3 16 9 29 16 W 1013,9 10 0,0
16.12.2017 13:00:00 4,3 2,6 4,3 16 9 25 14 W 1013,6 10 0,0
16.12.2017 12:00:00 4,6 3,1 4,7 15 8 32 18 W 1013,3 10 0,2
16.12.2017 11:00:00 3,1 2,1 3,1 18 10 32 18 NW 1013,1 5 0,6
16.12.2017 10:00:00 2,7 2,1 2,0 13 7 18 10 W 1011,9 10 0,1
16.12.2017 09:00:00 1,9 1,3 0,9 9 5 36 19 W 1010,9 10 0,0
16.12.2017 08:00:00 0,4 0,3 -0,2 4 2 18 10 ZW 1010,0 10 0,2
16.12.2017 07:00:00 2,8 1,8 1,8 9 5 18 10 NNW 1009,5 10 0,0
16.12.2017 06:00:00 0,6 0,5 -0,7 5 3 14 8 W 1008,5 10 0,0
16.12.2017 05:00:00 3,4 2,3 1,1 11 6 22 12 NNW 1007,9 10 0,4
16.12.2017 04:00:00 2,7 2,2 0,9 8 4 22 12 NNW 1007,4 4,9 0,2
16.12.2017 03:00:00 0,5 0,5 -0,6 2 1 11 6 ZZW 1006,1 1,3 0,2
16.12.2017 02:00:00 0,5 0,5 0,1 8 4 11 6 WZW 1005,5 1,8 0,2
16.12.2017 01:00:00 -0,6 -0,6 -1,5 2 1 7 4 ZW 1004,7 2,5 0,0
16.12.2017 00:00:00 -1,2 -1,2 -2,4 2 1 7 4 - 1004,3 0,2 0,0
15.12.2017 23:00:00 0,1 0,1 -1,5 8 4 11 6 NW 1003,2 0,6 0,0
15.12.2017 22:00:00 0,3 0,3 -0,9 2 1 7 4 - 1002,5 1,3 0,0
15.12.2017 21:00:00 2,5 2,5 1,7 5 3 11 6 N 1001,5 1,9 0,0
15.12.2017 20:00:00 3,0 3,0 2,8 5 3 7 4 NNW 1000,4 4,7 0,0
15.12.2017 19:00:00 1,8 1,8 0,8 5 3 7 4 NNO 999,3 1,0 0,0
15.12.2017 18:00:00 2,6 2,6 2,5 5 3 7 4 O 998,1 2,5 0,0
15.12.2017 17:00:00 3,7 3,7 2,9 4 2 7 4 O 997,1 7 0,0
15.12.2017 16:00:00 4,3 4,2 4,3 4 2 7 4 O 996,3 6 0,1
15.12.2017 15:00:00 4,4 3,7 4,4 4 2 7 4 - 995,4 8 0,1
15.12.2017 14:00:00 4,4 3,9 4,6 5 3 14 8 Z 994,9 10 0,1
15.12.2017 13:00:00 3,8 3,2 4,0 8 4 22 12 Z 994,6 10 0,2
15.12.2017 12:00:00 4,2 2,9 4,4 11 6 22 12 ZZW 994,1 10 0,0
15.12.2017 11:00:00 4,2 2,8 4,6 9 5 22 12 Z 993,7 10 0,0
15.12.2017 10:00:00 3,7 2,5 3,6 11 6 29 16 ZZW 993,1 10 0,0
15.12.2017 09:00:00 3,7 2,5 3,2 13 7 25 14 ZZW 992,3 10 0,0
15.12.2017 08:00:00 3,5 2,6 3,0 16 9 25 14 ZW 991,9 10 0,0
15.12.2017 07:00:00 3,0 2,2 2,8 16 9 29 16 ZW 991,6 10 0,0
15.12.2017 06:00:00 2,6 1,8 2,3 13 7 29 16 ZZW 991,4 10 0,0
15.12.2017 05:00:00 2,1 1,5 1,5 13 7 22 12 ZW 991,1 10 0,0
15.12.2017 04:00:00 2,0 1,4 1,5 13 7 29 16 ZW 990,9 10 0,0
15.12.2017 03:00:00 1,8 1,2 0,9 9 5 25 14 ZZW 990,5 10 0,0
15.12.2017 02:00:00 1,5 0,9 0,7 13 7 22 12 ZW 990,2 9 0,0
15.12.2017 01:00:00 1,0 0,7 0,3 13 7 18 10 ZW 989,8 8 0,0
15.12.2017 00:00:00 1,0 0,7 0,3 9 5 25 14 ZW 989,7 10 0,0
14.12.2017 23:00:00 1,5 0,9 0,9 13 7 22 12 ZW 989,7 10 0,0
14.12.2017 22:00:00 2,2 1,1 1,5 15 8 29 16 ZW 989,6 10 0,0
14.12.2017 21:00:00 2,7 1,2 2,0 13 7 25 14 ZZW 989,7 10 0,0
14.12.2017 20:00:00 3,4 1,8 2,8 15 8 25 14 ZZW 989,8 10 0,0
14.12.2017 19:00:00 4,1 2,2 3,6 16 9 36 19 ZZW 989,8 10 0,0
14.12.2017 18:00:00 4,5 2,7 4,1 18 10 36 19 ZW 990,2 10 0,0
14.12.2017 17:00:00 4,5 2,4 3,7 16 9 32 18 ZZW 990,6 10 0,0
14.12.2017 16:00:00 5,0 2,6 4,7 21 11 40 21 ZW 991,0 10 0,0
14.12.2017 15:00:00 5,2 2,7 5,0 21 11 43 23 ZZW 991,4 10 0,2
14.12.2017 14:00:00 5,3 2,8 5,2 18 10 40 21 ZW 991,9 10 0,0
14.12.2017 13:00:00 5,4 3,2 5,3 21 11 36 19 ZZW 992,5 10 0,0
14.12.2017 12:00:00 5,4 2,6 5,4 26 14 40 21 ZW 992,9 10 0,0
14.12.2017 11:00:00 5,3 2,3 5,1 22 12 36 19 ZW 993,1 10 0,0
14.12.2017 10:00:00 5,0 2,4 4,4 22 12 43 23 ZW 992,8 10 0,0
14.12.2017 09:00:00 4,6 2,2 3,8 21 11 40 21 ZW 992,3 10 0,0
14.12.2017 08:00:00 3,9 2,3 3,5 28 15 50 27 ZW 992,4 10 0,2
14.12.2017 07:00:00 4,4 2,7 3,7 28 15 50 27 WZW 992,5 10 0,1
14.12.2017 06:00:00 4,4 1,5 3,9 37 20 50 27 W 992,2 10 0,2
14.12.2017 05:00:00 3,7 2,5 3,5 35 19 68 37 W 990,9 10 0,1
14.12.2017 04:00:00 3,4 2,4 3,2 41 22 61 33 W 989,1 6 0,3
14.12.2017 03:00:00 1,9 1,6 1,4 16 9 32 18 ZW 988,6 6 1,6
14.12.2017 02:00:00 3,7 2,2 3,5 21 11 36 19 ZW 988,6 10 0,5
14.12.2017 01:00:00 4,2 2,1 3,5 11 6 25 14 ZW 988,8 10 0,0
14.12.2017 00:00:00 4,6 2,4 3,0 18 10 32 18 WZW 989,9 10 0,0
13.12.2017 23:00:00 5,0 2,3 4,1 29 16 40 21 W 989,7 10 0,0
13.12.2017 22:00:00 5,3 3,1 4,5 24 13 50 27 W 989,0 10 0,0
13.12.2017 21:00:00 6,5 5,0 6,0 24 13 54 29 WZW 988,0 10 2,7
13.12.2017 20:00:00 7,6 6,7 6,9 24 13 47 25 ZZW 987,7 10 2,3
13.12.2017 19:00:00 7,2 6,6 6,7 24 13 50 27 ZZW 989,8 10 2,4
13.12.2017 18:00:00 6,7 6,3 5,9 18 10 36 19 ZZW 991,5 10 1,1
13.12.2017 17:00:00 6,0 5,6 5,2 15 8 32 18 Z 993,8 10 0,5
13.12.2017 16:00:00 6,2 5,2 5,1 16 9 36 19 ZZW 995,6 10 0,1
13.12.2017 15:00:00 6,0 5,4 4,8 18 10 32 18 ZW 996,8 10 0,4
13.12.2017 14:00:00 5,4 4,8 - 21 11 32 18 ZW 997,8 10 0,0
13.12.2017 13:00:00 5,4 4,9 - 24 13 43 23 ZW 998,5 10 0,2
13.12.2017 12:00:00 4,9 4,5 3,7 22 12 50 27 ZZW 998,5 5 0,0
13.12.2017 11:00:00 4,6 4,1 3,5 22 12 47 25 ZZW 999,4 3,2 0,1
13.12.2017 10:00:00 4,0 3,6 3,0 22 12 43 23 Z 1000,3 9 0,3
13.12.2017 09:00:00 3,8 3,2 2,7 21 11 43 23 Z 1001,7 3,7 0,5
13.12.2017 08:00:00 3,7 2,6 2,7 22 12 47 25 Z 1002,7 4,1 0,5
13.12.2017 07:00:00 3,6 2,0 2,4 18 10 36 19 Z 1004,1 10 0,2
13.12.2017 06:00:00 3,4 1,8 2,2 18 10 40 21 Z 1005,5 10 0,0
13.12.2017 05:00:00 3,2 1,4 2,0 16 9 36 19 Z 1006,7 10 0,0
13.12.2017 04:00:00 2,8 1,4 1,8 16 9 36 19 Z 1008,0 10 0,0
13.12.2017 03:00:00 2,7 1,2 1,7 16 9 32 18 Z 1009,5 10 0,0
13.12.2017 02:00:00 2,3 0,9 1,3 13 7 25 14 Z 1010,3 10 0,0
13.12.2017 01:00:00 1,7 0,6 0,5 13 7 25 14 Z 1011,1 10 0,0
13.12.2017 00:00:00 1,5 0,4 0,3 13 7 25 14 Z 1011,9 10 0,0
12.12.2017 23:00:00 2,6 0,5 0,7 11 6 22 12 ZZW 1012,5 10 0,0
12.12.2017 22:00:00 1,0 0,3 -2,0 8 4 14 8 Z 1012,8 10 0,0
12.12.2017 21:00:00 1,4 0,7 -0,5 9 5 18 10 ZZW 1012,8 10 0,0
12.12.2017 20:00:00 1,4 0,5 -0,4 9 5 18 10 ZZW 1012,6 7 0,0
12.12.2017 19:00:00 1,4 0,7 0,1 11 6 18 10 ZZW 1012,0 8 0,0
12.12.2017 18:00:00 1,1 0,9 -0,1 9 5 14 8 ZW 1011,9 5 0,0
12.12.2017 17:00:00 1,2 0,9 0,2 9 5 18 10 ZZW 1011,5 7 0,0
12.12.2017 16:00:00 2,3 1,4 1,2 13 7 25 14 WZW 1010,9 10 0,0
12.12.2017 15:00:00 2,1 1,5 1,3 11 6 22 12 ZW 1009,7 10 0,0
12.12.2017 14:00:00 1,5 1,1 1,0 11 6 22 12 ZW 1009,3 6 0,0
12.12.2017 13:00:00 1,6 1,4 0,9 4 2 14 8 ZZW 1008,9 6 0,3
12.12.2017 12:00:00 0,7 0,6 0,4 15 8 22 12 WZW 1008,3 4,3 0,2

tt = temperatuur
td = dauwpunt
tt 5cm = temperatuur 5cm
ff = windsnelheid
fx = windstoten
dd = windrichting
ppp = luchtdruk
vv = zicht
rr = neerslag

Weerstations in de omgeving